Location: Lane
(33.5226°N, 79.8788°W)
Time: 03:06:49
(UTC+00:00)

Tiros 1 despin weight - Pass Details

Date: 09 October 2022
Orbit: 590 x 637 km, 48.2° (Epoch: 30 November)

Event Time Altitude Azimuth Distance (km) Brightness Sun altitude
Rises 23:15:27 0° 315° (NW) 2,864 ? -5.4°
Reaches altitude 10° 23:18:12 10° 332° (NNW) 1,968 ? -6.0°
Maximum altitude 23:21:42 22° 22° (NNE) 1,375 ? -6.7°
Drops below altitude 10° 23:25:14 10° 73° (ENE) 1,989 ? -7.5°
Enters shadow 23:25:33 - 76° (ENE) 2,085 ? -7.5°
Sets 23:28:01 0° 89° (E) 2,903 - -8.1°
